contact:dominique.lefevre@mio.osupytheas.fr, maurice.libes@osupytheas.fr, didier.mallarino@osupytheas.fr
Project:EMSO http://www.emso-fr.org/EMSO-France
Depth: 2436.0 m
Title:EMSO Ligure Ouest : Data MII capteur MICROCAT
DateTime_Computer,Latitude,Longitude,Temperature,Conductivity,Pressure,DateTime_Instrument
DateTime_Computer,Latitude,Longitude,degC,S m-1,dbar,DateTime_Instrument
2021-04-21T00:02:56Z,42.805,6.029,13.3050,4.60031,2470.32,2021-4-21T02:04:05Z
2021-04-21T00:05:59Z,42.805,6.029,13.3041,4.60039,2470.32,2021-4-21T02:07:08Z
2021-04-21T00:09:03Z,42.805,6.029,13.3036,4.60047,2470.334,2021-4-21T02:10:12Z
2021-04-21T00:12:06Z,42.805,6.029,13.3051,4.60064,2470.31,2021-4-21T02:13:15Z
2021-04-21T00:15:09Z,42.805,6.029,13.3058,4.60061,2470.334,2021-4-21T02:16:18Z
2021-04-21T00:18:12Z,42.805,6.029,13.3055,4.60051,2470.334,2021-4-21T02:19:21Z
2021-04-21T00:21:15Z,42.805,6.029,13.3055,4.60031,2470.32,2021-4-21T02:22:24Z
2021-04-21T00:24:18Z,42.805,6.029,13.3057,4.60036,2470.31,2021-4-21T02:25:27Z
2021-04-21T00:27:21Z,42.805,6.029,13.3064,4.60033,2470.31,2021-4-21T02:28:30Z
2021-04-21T00:30:24Z,42.805,6.029,13.3048,4.60029,2470.287,2021-4-21T02:31:33Z
2021-04-21T00:33:28Z,42.805,6.029,13.3067,4.60042,2470.32,2021-4-21T02:34:37Z
2021-04-21T00:36:31Z,42.805,6.029,13.3030,4.60041,2470.334,2021-4-21T02:37:40Z
2021-04-21T00:39:34Z,42.805,6.029,13.3062,4.60019,2470.334,2021-4-21T02:40:43Z
2021-04-21T00:42:37Z,42.805,6.029,13.3041,4.60041,2470.38,2021-4-21T02:43:46Z
2021-04-21T00:45:40Z,42.805,6.029,13.3016,4.60050,2470.357,2021-4-21T02:46:49Z
2021-04-21T00:48:43Z,42.805,6.029,13.3046,4.60029,2470.31,2021-4-21T02:49:52Z
2021-04-21T00:51:46Z,42.805,6.029,13.3062,4.60039,2470.357,2021-4-21T02:52:55Z
2021-04-21T00:54:49Z,42.805,6.029,13.3062,4.60038,2470.357,2021-4-21T02:55:58Z
2021-04-21T00:57:53Z,42.805,6.029,13.3041,4.60031,2470.343,2021-4-21T02:59:02Z
2021-04-21T01:00:56Z,42.805,6.029,13.3029,4.60048,2470.334,2021-4-21T03:02:05Z
2021-04-21T01:03:59Z,42.805,6.029,13.3019,4.60043,2470.32,2021-4-21T03:05:08Z
2021-04-21T01:07:02Z,42.805,6.029,13.3060,4.60019,2470.357,2021-4-21T03:08:11Z
2021-04-21T01:10:05Z,42.805,6.029,13.3046,4.60053,2470.31,2021-4-21T03:11:14Z
2021-04-21T01:13:08Z,42.805,6.029,13.3053,4.60072,2470.357,2021-4-21T03:14:17Z
2021-04-21T01:16:11Z,42.805,6.029,13.3054,4.60048,2470.357,2021-4-21T03:17:20Z
2021-04-21T01:19:14Z,42.805,6.029,13.3061,4.60050,2470.334,2021-4-21T03:20:23Z
2021-04-21T01:22:18Z,42.805,6.029,13.3054,4.60054,2470.32,2021-4-21T03:23:27Z
2021-04-21T01:25:21Z,42.805,6.029,13.3056,4.60052,2470.357,2021-4-21T03:26:30Z
2021-04-21T01:28:24Z,42.805,6.029,13.3030,4.60080,2470.334,2021-4-21T03:29:33Z
2021-04-21T01:31:27Z,42.805,6.029,13.3046,4.60063,2470.343,2021-4-21T03:32:36Z
2021-04-21T01:34:30Z,42.805,6.029,13.3049,4.60062,2470.357,2021-4-21T03:35:39Z
2021-04-21T01:37:33Z,42.805,6.029,13.3045,4.60114,2470.38,2021-4-21T03:38:42Z
2021-04-21T01:40:36Z,42.805,6.029,13.3038,4.60029,2470.31,2021-4-21T03:41:45Z
2021-04-21T01:43:39Z,42.805,6.029,13.3030,4.60060,2470.343,2021-4-21T03:44:48Z
2021-04-21T01:46:43Z,42.805,6.029,13.3008,4.60058,2470.343,2021-4-21T03:47:52Z
2021-04-21T01:49:46Z,42.805,6.029,13.3027,4.60050,2470.343,2021-4-21T03:50:55Z
2021-04-21T01:52:49Z,42.805,6.029,13.3034,4.60095,2470.357,2021-4-21T03:53:58Z
2021-04-21T01:55:52Z,42.805,6.029,13.3014,4.60115,2470.366,2021-4-21T03:57:01Z
2021-04-21T01:58:55Z,42.805,6.029,13.3021,4.60053,2470.366,2021-4-21T04:00:04Z
2021-04-21T02:01:58Z,42.805,6.029,13.3052,4.60052,2470.343,2021-4-21T04:03:07Z
2021-04-21T02:05:01Z,42.805,6.029,13.3009,4.60110,2470.38,2021-4-21T04:06:10Z
2021-04-21T02:08:04Z,42.805,6.029,13.3006,4.60031,2470.357,2021-4-21T04:09:13Z
2021-04-21T02:11:07Z,42.805,6.029,13.3007,4.60057,2470.366,2021-4-21T04:12:17Z
2021-04-21T02:14:11Z,42.805,6.029,13.3019,4.60037,2470.38,2021-4-21T04:15:20Z
2021-04-21T02:17:14Z,42.805,6.029,13.3017,4.60038,2470.357,2021-4-21T04:18:23Z
2021-04-21T02:20:17Z,42.805,6.029,13.3002,4.60052,2470.38,2021-4-21T04:21:26Z
2021-04-21T02:23:20Z,42.805,6.029,13.3019,4.60028,2470.38,2021-4-21T04:24:29Z
2021-04-21T02:26:23Z,42.805,6.029,13.3021,4.60056,2470.357,2021-4-21T04:27:32Z
2021-04-21T02:29:26Z,42.805,6.029,13.3020,4.60098,2470.366,2021-4-21T04:30:35Z
2021-04-21T02:32:29Z,42.805,6.029,13.3019,4.60093,2470.343,2021-4-21T04:33:38Z
2021-04-21T02:35:32Z,42.805,6.029,13.3023,4.60040,2470.38,2021-4-21T04:36:42Z
2021-04-21T02:38:36Z,42.805,6.029,13.3002,4.60039,2470.357,2021-4-21T04:39:45Z
2021-04-21T02:41:39Z,42.805,6.029,13.3030,4.60053,2470.343,2021-4-21T04:42:48Z
2021-04-21T02:44:42Z,42.805,6.029,13.3007,4.60078,2470.357,2021-4-21T04:45:51Z
2021-04-21T02:47:45Z,42.805,6.029,13.3008,4.60083,2470.38,2021-4-21T04:48:54Z
2021-04-21T02:50:48Z,42.805,6.029,13.3011,4.60099,2470.343,2021-4-21T04:51:57Z
2021-04-21T02:53:51Z,42.805,6.029,13.3023,4.60101,2470.343,2021-4-21T04:55:00Z
2021-04-21T02:56:54Z,42.805,6.029,13.2999,4.60106,2470.366,2021-4-21T04:58:03Z
2021-04-21T02:59:57Z,42.805,6.029,13.2997,4.60052,2470.38,2021-4-21T05:01:07Z
2021-04-21T03:03:01Z,42.805,6.029,13.3004,4.60063,2470.38,2021-4-21T05:04:10Z
2021-04-21T03:06:04Z,42.805,6.029,13.3010,4.60111,2470.404,2021-4-21T05:07:13Z
2021-04-21T03:09:07Z,42.805,6.029,13.3011,4.60098,2470.357,2021-4-21T05:10:16Z
2021-04-21T03:12:10Z,42.805,6.029,13.3015,4.60091,2470.39,2021-4-21T05:13:19Z
2021-04-21T03:15:13Z,42.805,6.029,13.3015,4.60091,2470.357,2021-4-21T05:16:22Z
2021-04-21T03:18:16Z,42.805,6.029,13.3019,4.60039,2470.366,2021-4-21T05:19:25Z
2021-04-21T03:21:19Z,42.805,6.029,13.3011,4.60082,2470.366,2021-4-21T05:22:28Z
2021-04-21T03:24:22Z,42.805,6.029,13.3014,4.60077,2470.343,2021-4-21T05:25:32Z
2021-04-21T03:27:26Z,42.805,6.029,13.3000,4.60057,2470.39,2021-4-21T05:28:35Z
2021-04-21T03:30:29Z,42.805,6.029,13.3014,4.60057,2470.38,2021-4-21T05:31:38Z
2021-04-21T03:33:32Z,42.805,6.029,13.3009,4.60049,2470.39,2021-4-21T05:34:41Z
2021-04-21T03:36:35Z,42.805,6.029,13.3018,4.60062,2470.39,2021-4-21T05:37:44Z
2021-04-21T03:39:38Z,42.805,6.029,13.3019,4.60070,2470.38,2021-4-21T05:40:47Z
2021-04-21T03:42:41Z,42.805,6.029,13.3015,4.60073,2470.39,2021-4-21T05:43:50Z
2021-04-21T03:45:44Z,42.805,6.029,13.3004,4.60072,2470.366,2021-4-21T05:46:53Z
2021-04-21T03:48:47Z,42.805,6.029,13.3011,4.60099,2470.366,2021-4-21T05:49:57Z
2021-04-21T03:51:51Z,42.805,6.029,13.3004,4.60072,2470.38,2021-4-21T05:53:00Z
2021-04-21T03:54:54Z,42.805,6.029,13.3006,4.60084,2470.404,2021-4-21T05:56:03Z
2021-04-21T03:57:57Z,42.805,6.029,13.3016,4.60072,2470.38,2021-4-21T05:59:06Z
2021-04-21T04:01:00Z,42.805,6.029,13.2996,4.60087,2470.404,2021-4-21T06:02:09Z
2021-04-21T04:04:03Z,42.805,6.029,13.3008,4.60070,2470.366,2021-4-21T06:05:12Z
2021-04-21T04:07:06Z,42.805,6.029,13.3018,4.60096,2470.366,2021-4-21T06:08:15Z
2021-04-21T04:10:09Z,42.805,6.029,13.3021,4.60094,2470.38,2021-4-21T06:11:18Z
2021-04-21T04:13:12Z,42.805,6.029,13.3006,4.60068,2470.39,2021-4-21T06:14:21Z
2021-04-21T04:16:16Z,42.805,6.029,13.3011,4.60074,2470.404,2021-4-21T06:17:25Z
2021-04-21T04:19:19Z,42.805,6.029,13.3002,4.60064,2470.39,2021-4-21T06:20:28Z
2021-04-21T04:22:22Z,42.805,6.029,13.3009,4.60068,2470.366,2021-4-21T06:23:31Z
2021-04-21T04:25:25Z,42.805,6.029,13.3025,4.60064,2470.404,2021-4-21T06:26:34Z
2021-04-21T04:28:28Z,42.805,6.029,13.3019,4.60068,2470.343,2021-4-21T06:29:37Z
2021-04-21T04:31:31Z,42.805,6.029,13.3006,4.60074,2470.33,2021-4-21T06:32:40Z
2021-04-21T04:34:34Z,42.805,6.029,13.2992,4.60045,2470.343,2021-4-21T06:35:43Z
2021-04-21T04:37:37Z,42.805,6.029,13.3014,4.60043,2470.38,2021-4-21T06:38:46Z
2021-04-21T04:40:41Z,42.805,6.029,13.3009,4.60038,2470.404,2021-4-21T06:41:50Z
2021-04-21T04:43:44Z,42.805,6.029,13.2999,4.60041,2470.39,2021-4-21T06:44:53Z
2021-04-21T04:46:47Z,42.805,6.029,13.3000,4.60034,2470.366,2021-4-21T06:47:56Z
2021-04-21T04:49:50Z,42.805,6.029,13.3004,4.60039,2470.38,2021-4-21T06:50:59Z
2021-04-21T04:52:53Z,42.805,6.029,13.2993,4.60020,2470.404,2021-4-21T06:54:02Z
2021-04-21T04:55:56Z,42.805,6.029,13.2997,4.60033,2470.38,2021-4-21T06:57:05Z
2021-04-21T04:58:59Z,42.805,6.029,13.2993,4.60024,2470.366,2021-4-21T07:00:08Z
2021-04-21T05:02:02Z,42.805,6.029,13.2995,4.60031,2470.357,2021-4-21T07:03:11Z
2021-04-21T05:05:06Z,42.805,6.029,13.2998,4.60039,2470.366,2021-4-21T07:06:15Z
2021-04-21T05:08:09Z,42.805,6.029,13.3009,4.60044,2470.357,2021-4-21T07:09:18Z
2021-04-21T05:11:12Z,42.805,6.029,13.3006,4.60063,2470.38,2021-4-21T07:12:21Z
2021-04-21T05:14:15Z,42.805,6.029,13.3005,4.60079,2470.38,2021-4-21T07:15:24Z
2021-04-21T05:17:18Z,42.805,6.029,13.2993,4.60036,2470.334,2021-4-21T07:18:27Z
2021-04-21T05:20:21Z,42.805,6.029,13.3024,4.60042,2470.366,2021-4-21T07:21:30Z
2021-04-21T05:23:24Z,42.805,6.029,13.2998,4.60026,2470.38,2021-4-21T07:24:33Z
2021-04-21T05:26:27Z,42.805,6.029,13.3001,4.60062,2470.366,2021-4-21T07:27:36Z
2021-04-21T05:29:31Z,42.805,6.029,13.2993,4.60052,2470.357,2021-4-21T07:30:40Z
2021-04-21T05:32:34Z,42.805,6.029,13.2986,4.60032,2470.366,2021-4-21T07:33:43Z
2021-04-21T05:35:37Z,42.805,6.029,13.2990,4.60027,2470.366,2021-4-21T07:36:46Z
2021-04-21T05:38:40Z,42.805,6.029,13.2995,4.60033,2470.343,2021-4-21T07:39:49Z
2021-04-21T05:41:43Z,42.805,6.029,13.2998,4.60036,2470.366,2021-4-21T07:42:52Z
2021-04-21T05:44:46Z,42.805,6.029,13.2992,4.60029,2470.343,2021-4-21T07:45:55Z
2021-04-21T05:47:49Z,42.805,6.029,13.2991,4.60016,2470.366,2021-4-21T07:48:58Z
2021-04-21T05:50:52Z,42.805,6.029,13.2994,4.60026,2470.357,2021-4-21T07:52:01Z
2021-04-21T05:53:56Z,42.805,6.029,13.2996,4.60044,2470.38,2021-4-21T07:55:05Z
2021-04-21T05:56:59Z,42.805,6.029,13.2990,4.60041,2470.357,2021-4-21T07:58:08Z
2021-04-21T06:00:02Z,42.805,6.029,13.3003,4.60043,2470.343,2021-4-21T08:01:11Z
2021-04-21T06:03:05Z,42.805,6.029,13.3009,4.60013,2470.38,2021-4-21T08:04:14Z
2021-04-21T06:06:08Z,42.805,6.029,13.3000,4.60022,2470.366,2021-4-21T08:07:17Z
2021-04-21T06:09:11Z,42.805,6.029,13.2997,4.60035,2470.366,2021-4-21T08:10:20Z
2021-04-21T06:12:14Z,42.805,6.029,13.2995,4.60024,2470.366,2021-4-21T08:13:23Z
2021-04-21T06:15:17Z,42.805,6.029,13.2998,4.60019,2470.39,2021-4-21T08:16:26Z
2021-04-21T06:18:20Z,42.805,6.029,13.2998,4.60031,2470.39,2021-4-21T08:19:30Z
2021-04-21T06:21:24Z,42.805,6.029,13.2999,4.60047,2470.32,2021-4-21T08:22:33Z
2021-04-21T06:24:27Z,42.805,6.029,13.2995,4.60033,2470.366,2021-4-21T08:25:36Z
2021-04-21T06:27:30Z,42.805,6.029,13.3019,4.60049,2470.343,2021-4-21T08:28:39Z
2021-04-21T06:30:33Z,42.805,6.029,13.2991,4.60031,2470.343,2021-4-21T08:31:42Z
2021-04-21T06:33:36Z,42.805,6.029,13.2991,4.60031,2470.343,2021-4-21T08:34:45Z
2021-04-21T06:36:39Z,42.805,6.029,13.2997,4.60053,2470.32,2021-4-21T08:37:48Z
2021-04-21T06:39:42Z,42.805,6.029,13.2996,4.60047,2470.32,2021-4-21T08:40:51Z
2021-04-21T06:42:46Z,42.805,6.029,13.2996,4.60057,2470.32,2021-4-21T08:43:55Z
2021-04-21T06:45:49Z,42.805,6.029,13.3006,4.60064,2470.357,2021-4-21T08:46:58Z
2021-04-21T06:48:52Z,42.805,6.029,13.3009,4.60040,2470.343,2021-4-21T08:50:01Z
2021-04-21T06:51:55Z,42.805,6.029,13.3000,4.60055,2470.366,2021-4-21T08:53:04Z
2021-04-21T06:54:58Z,42.805,6.029,13.3005,4.60066,2470.38,2021-4-21T08:56:07Z
2021-04-21T06:58:01Z,42.805,6.029,13.3006,4.60067,2470.343,2021-4-21T08:59:10Z
2021-04-21T07:01:04Z,42.805,6.029,13.3011,4.60059,2470.38,2021-4-21T09:02:13Z
2021-04-21T07:04:07Z,42.805,6.029,13.3001,4.60052,2470.32,2021-4-21T09:05:16Z
2021-04-21T07:07:10Z,42.805,6.029,13.3014,4.60063,2470.366,2021-4-21T09:08:20Z
2021-04-21T07:10:14Z,42.805,6.029,13.3004,4.60062,2470.343,2021-4-21T09:11:23Z
2021-04-21T07:13:17Z,42.805,6.029,13.3031,4.60071,2470.357,2021-4-21T09:14:26Z
2021-04-21T07:16:20Z,42.805,6.029,13.3028,4.60032,2470.343,2021-4-21T09:17:29Z
2021-04-21T07:19:23Z,42.805,6.029,13.3040,4.60062,2470.334,2021-4-21T09:20:32Z
2021-04-21T07:22:26Z,42.805,6.029,13.3021,4.60097,2470.32,2021-4-21T09:23:35Z
2021-04-21T07:25:29Z,42.805,6.029,13.3026,4.60079,2470.343,2021-4-21T09:26:38Z
2021-04-21T07:28:32Z,42.805,6.029,13.3024,4.60053,2470.31,2021-4-21T09:29:41Z
2021-04-21T07:31:35Z,42.805,6.029,13.3023,4.60074,2470.343,2021-4-21T09:32:45Z
2021-04-21T07:34:39Z,42.805,6.029,13.3004,4.60075,2470.343,2021-4-21T09:35:48Z
2021-04-21T07:37:42Z,42.805,6.029,13.3002,4.60069,2470.343,2021-4-21T09:38:51Z
2021-04-21T07:40:45Z,42.805,6.029,13.3013,4.60069,2470.334,2021-4-21T09:41:54Z
2021-04-21T07:43:48Z,42.805,6.029,13.3020,4.60077,2470.334,2021-4-21T09:44:57Z
2021-04-21T07:46:51Z,42.805,6.029,13.3021,4.60028,2470.38,2021-4-21T09:48:00Z
2021-04-21T07:49:54Z,42.805,6.029,13.3015,4.60033,2470.334,2021-4-21T09:51:03Z
2021-04-21T07:52:57Z,42.805,6.029,13.3019,4.60050,2470.32,2021-4-21T09:54:06Z
2021-04-21T07:56:00Z,42.805,6.029,13.3032,4.60097,2470.31,2021-4-21T09:57:10Z
2021-04-21T07:59:04Z,42.805,6.029,13.3036,4.60064,2470.357,2021-4-21T10:00:13Z
2021-04-21T08:02:07Z,42.805,6.029,13.3009,4.60067,2470.334,2021-4-21T10:03:16Z
2021-04-21T08:05:10Z,42.805,6.029,13.3021,4.60075,2470.357,2021-4-21T10:06:19Z
2021-04-21T08:08:13Z,42.805,6.029,13.3029,4.60059,2470.32,2021-4-21T10:09:22Z
2021-04-21T08:11:16Z,42.805,6.029,13.3045,4.60042,2470.334,2021-4-21T10:12:25Z
2021-04-21T08:14:19Z,42.805,6.029,13.3032,4.60094,2470.343,2021-4-21T10:15:28Z
2021-04-21T08:17:22Z,42.805,6.029,13.3038,4.60054,2470.334,2021-4-21T10:18:31Z
2021-04-21T08:20:25Z,42.805,6.029,13.3063,4.60072,2470.32,2021-4-21T10:21:35Z
2021-04-21T08:23:29Z,42.805,6.029,13.3037,4.60036,2470.32,2021-4-21T10:24:38Z
2021-04-21T08:26:32Z,42.805,6.029,13.3031,4.60059,2470.334,2021-4-21T10:27:41Z
2021-04-21T08:29:35Z,42.805,6.029,13.3018,4.60041,2470.297,2021-4-21T10:30:44Z
2021-04-21T08:32:38Z,42.805,6.029,13.3033,4.60059,2470.31,2021-4-21T10:33:47Z
2021-04-21T08:35:41Z,42.805,6.029,13.3041,4.60057,2470.32,2021-4-21T10:36:50Z
2021-04-21T08:38:44Z,42.805,6.029,13.3045,4.60057,2470.31,2021-4-21T10:39:53Z
2021-04-21T08:41:47Z,42.805,6.029,13.3048,4.60041,2470.334,2021-4-21T10:42:56Z
2021-04-21T08:44:51Z,42.805,6.029,13.3034,4.60046,2470.334,2021-4-21T10:46:00Z
2021-04-21T08:47:54Z,42.805,6.029,13.3014,4.60006,2470.357,2021-4-21T10:49:03Z
2021-04-21T08:50:57Z,42.805,6.029,13.3026,4.60014,2470.357,2021-4-21T10:52:06Z
2021-04-21T08:54:00Z,42.805,6.029,13.3029,4.60022,2470.334,2021-4-21T10:55:09Z
2021-04-21T08:57:03Z,42.805,6.029,13.3019,4.60065,2470.357,2021-4-21T10:58:12Z
2021-04-21T09:00:06Z,42.805,6.029,13.3019,4.60026,2470.357,2021-4-21T11:01:15Z
2021-04-21T09:03:09Z,42.805,6.029,13.3026,4.60021,2470.357,2021-4-21T11:04:18Z
2021-04-21T09:06:12Z,42.805,6.029,13.3009,4.60010,2470.357,2021-4-21T11:07:21Z
2021-04-21T09:09:16Z,42.805,6.029,13.3042,4.60015,2470.357,2021-4-21T11:10:25Z
2021-04-21T09:12:19Z,42.805,6.029,13.3004,4.60025,2470.343,2021-4-21T11:13:28Z
2021-04-21T09:15:22Z,42.805,6.029,13.3033,4.60033,2470.357,2021-4-21T11:16:31Z
2021-04-21T09:18:25Z,42.805,6.029,13.3005,4.60021,2470.334,2021-4-21T11:19:34Z
2021-04-21T09:21:28Z,42.805,6.029,13.3005,4.60031,2470.32,2021-4-21T11:22:37Z
2021-04-21T09:24:31Z,42.805,6.029,13.3006,4.60026,2470.32,2021-4-21T11:25:40Z
2021-04-21T09:27:34Z,42.805,6.029,13.3004,4.60017,2470.38,2021-4-21T11:28:43Z
2021-04-21T09:30:37Z,42.805,6.029,13.3021,4.60021,2470.334,2021-4-21T11:31:46Z
2021-04-21T09:33:41Z,42.805,6.029,13.3015,4.60024,2470.334,2021-4-21T11:34:50Z
2021-04-21T09:36:44Z,42.805,6.029,13.3028,4.60019,2470.31,2021-4-21T11:37:53Z
2021-04-21T09:39:47Z,42.805,6.029,13.3018,4.60025,2470.32,2021-4-21T11:40:56Z
2021-04-21T09:42:50Z,42.805,6.029,13.3029,4.60023,2470.334,2021-4-21T11:43:59Z
2021-04-21T09:45:53Z,42.805,6.029,13.3010,4.60019,2470.343,2021-4-21T11:47:02Z
2021-04-21T09:48:56Z,42.805,6.029,13.3023,4.60017,2470.334,2021-4-21T11:50:05Z
2021-04-21T09:51:59Z,42.805,6.029,13.3036,4.60016,2470.334,2021-4-21T11:53:08Z
2021-04-21T09:55:02Z,42.805,6.029,13.3021,4.60020,2470.32,2021-4-21T11:56:12Z
2021-04-21T09:58:06Z,42.805,6.029,13.3034,4.60014,2470.32,2021-4-21T11:59:15Z
2021-04-21T10:01:09Z,42.805,6.029,13.3019,4.60016,2470.32,2021-4-21T12:02:18Z
2021-04-21T10:04:12Z,42.805,6.029,13.3025,4.60009,2470.357,2021-4-21T12:05:21Z
2021-04-21T10:07:15Z,42.805,6.029,13.3039,4.60009,2470.357,2021-4-21T12:08:24Z
2021-04-21T10:10:18Z,42.805,6.029,13.3016,4.60015,2470.357,2021-4-21T12:11:27Z
2021-04-21T10:13:21Z,42.805,6.029,13.3019,4.60016,2470.357,2021-4-21T12:14:30Z
2021-04-21T10:16:24Z,42.805,6.029,13.3016,4.60028,2470.357,2021-4-21T12:17:33Z
2021-04-21T10:19:27Z,42.805,6.029,13.3029,4.60023,2470.32,2021-4-21T12:20:37Z
2021-04-21T10:22:31Z,42.805,6.029,13.3020,4.60011,2470.366,2021-4-21T12:23:40Z
2021-04-21T10:25:34Z,42.805,6.029,13.3017,4.60014,2470.334,2021-4-21T12:26:43Z
2021-04-21T10:28:37Z,42.805,6.029,13.3010,4.60009,2470.343,2021-4-21T12:29:46Z
2021-04-21T10:31:40Z,42.805,6.029,13.3021,4.60011,2470.334,2021-4-21T12:32:49Z
2021-04-21T10:34:43Z,42.805,6.029,13.3004,4.60027,2470.32,2021-4-21T12:35:52Z
2021-04-21T10:37:46Z,42.805,6.029,13.3019,4.60021,2470.366,2021-4-21T12:38:55Z
2021-04-21T10:40:49Z,42.805,6.029,13.3021,4.60014,2470.31,2021-4-21T12:41:58Z
2021-04-21T10:43:52Z,42.805,6.029,13.3023,4.60019,2470.38,2021-4-21T12:45:02Z
2021-04-21T10:46:56Z,42.805,6.029,13.3026,4.60014,2470.334,2021-4-21T12:48:05Z
2021-04-21T10:49:59Z,42.805,6.029,13.3030,4.60011,2470.366,2021-4-21T12:51:08Z
2021-04-21T10:53:02Z,42.805,6.029,13.3018,4.60019,2470.334,2021-4-21T12:54:11Z
2021-04-21T10:56:05Z,42.805,6.029,13.3034,4.60019,2470.357,2021-4-21T12:57:14Z
2021-04-21T10:59:08Z,42.805,6.029,13.3014,4.60021,2470.357,2021-4-21T13:00:17Z
2021-04-21T11:02:11Z,42.805,6.029,13.3007,4.60013,2470.366,2021-4-21T13:03:20Z
2021-04-21T11:05:14Z,42.805,6.029,13.3009,4.60023,2470.297,2021-4-21T13:06:23Z
2021-04-21T11:08:17Z,42.805,6.029,13.3012,4.60015,2470.357,2021-4-21T13:09:27Z
2021-04-21T11:11:21Z,42.805,6.029,13.3019,4.60014,2470.357,2021-4-21T13:12:30Z
2021-04-21T11:14:24Z,42.805,6.029,13.3014,4.60014,2470.297,2021-4-21T13:15:33Z
2021-04-21T11:17:27Z,42.805,6.029,13.3029,4.60022,2470.343,2021-4-21T13:18:36Z
2021-04-21T11:20:30Z,42.805,6.029,13.3036,4.60016,2470.297,2021-4-21T13:21:39Z
2021-04-21T11:23:33Z,42.805,6.029,13.3015,4.60012,2470.343,2021-4-21T13:24:42Z
2021-04-21T11:26:36Z,42.805,6.029,13.3029,4.60014,2470.366,2021-4-21T13:27:45Z
2021-04-21T11:29:39Z,42.805,6.029,13.3017,4.60016,2470.334,2021-4-21T13:30:48Z
2021-04-21T11:32:42Z,42.805,6.029,13.3016,4.60020,2470.343,2021-4-21T13:33:52Z
2021-04-21T11:35:46Z,42.805,6.029,13.3018,4.60037,2470.343,2021-4-21T13:36:55Z
2021-04-21T11:38:49Z,42.805,6.029,13.3032,4.60019,2470.31,2021-4-21T13:39:58Z
2021-04-21T11:41:52Z,42.805,6.029,13.3031,4.60020,2470.357,2021-4-21T13:43:01Z
2021-04-21T11:44:55Z,42.805,6.029,13.3027,4.60028,2470.32,2021-4-21T13:46:04Z
2021-04-21T11:47:58Z,42.805,6.029,13.3028,4.60033,2470.366,2021-4-21T13:49:07Z
2021-04-21T11:51:01Z,42.805,6.029,13.3020,4.60019,2470.366,2021-4-21T13:52:10Z
2021-04-21T11:54:04Z,42.805,6.029,13.3028,4.60025,2470.32,2021-4-21T13:55:13Z
2021-04-21T11:57:08Z,42.805,6.029,13.3021,4.60026,2470.357,2021-4-21T13:58:17Z
2021-04-21T12:00:11Z,42.805,6.029,13.3029,4.60024,2470.343,2021-4-21T14:01:20Z
2021-04-21T12:03:14Z,42.805,6.029,13.3031,4.60033,2470.404,2021-4-21T14:04:23Z
2021-04-21T12:06:17Z,42.805,6.029,13.3021,4.60021,2470.31,2021-4-21T14:07:26Z
2021-04-21T12:09:20Z,42.805,6.029,13.3024,4.60014,2470.366,2021-4-21T14:10:29Z
2021-04-21T12:12:23Z,42.805,6.029,13.3024,4.60032,2470.366,2021-4-21T14:13:32Z
2021-04-21T12:15:26Z,42.805,6.029,13.3030,4.60029,2470.343,2021-4-21T14:16:35Z
2021-04-21T12:18:29Z,42.805,6.029,13.3024,4.60019,2470.357,2021-4-21T14:19:38Z
2021-04-21T12:21:33Z,42.805,6.029,13.3022,4.60021,2470.357,2021-4-21T14:22:42Z
2021-04-21T12:24:36Z,42.805,6.029,13.3026,4.60010,2470.357,2021-4-21T14:25:45Z
2021-04-21T12:27:39Z,42.805,6.029,13.3018,4.60017,2470.343,2021-4-21T14:28:48Z
2021-04-21T12:30:42Z,42.805,6.029,13.3019,4.60019,2470.32,2021-4-21T14:31:51Z
2021-04-21T12:33:45Z,42.805,6.029,13.3021,4.60021,2470.366,2021-4-21T14:34:54Z
2021-04-21T12:36:48Z,42.805,6.029,13.3024,4.60029,2470.366,2021-4-21T14:37:57Z
2021-04-21T12:39:51Z,42.805,6.029,13.3030,4.60021,2470.343,2021-4-21T14:41:00Z
2021-04-21T12:42:54Z,42.805,6.029,13.3026,4.60021,2470.357,2021-4-21T14:44:04Z
2021-04-21T12:45:58Z,42.805,6.029,13.3030,4.60014,2470.38,2021-4-21T14:47:07Z
2021-04-21T12:49:01Z,42.805,6.029,13.3016,4.60022,2470.366,2021-4-21T14:50:10Z
2021-04-21T12:52:04Z,42.805,6.029,13.3024,4.60020,2470.357,2021-4-21T14:53:13Z
2021-04-21T12:55:07Z,42.805,6.029,13.3030,4.60028,2470.366,2021-4-21T14:56:16Z
2021-04-21T12:58:10Z,42.805,6.029,13.3027,4.60036,2470.343,2021-4-21T14:59:19Z
2021-04-21T13:01:13Z,42.805,6.029,13.3057,4.60039,2470.334,2021-4-21T15:02:22Z
2021-04-21T13:04:16Z,42.805,6.029,13.3003,4.60021,2470.366,2021-4-21T15:05:25Z
2021-04-21T13:07:19Z,42.805,6.029,13.2996,4.60017,2470.38,2021-4-21T15:08:29Z
2021-04-21T13:10:23Z,42.805,6.029,13.2986,4.60020,2470.343,2021-4-21T15:11:32Z
2021-04-21T13:13:26Z,42.805,6.029,13.3009,4.60022,2470.357,2021-4-21T15:14:35Z
2021-04-21T13:16:29Z,42.805,6.029,13.3058,4.60043,2470.38,2021-4-21T15:17:38Z
2021-04-21T13:19:32Z,42.805,6.029,13.3081,4.60059,2470.334,2021-4-21T15:20:41Z
2021-04-21T13:22:35Z,42.805,6.029,13.3052,4.60033,2470.343,2021-4-21T15:23:44Z
2021-04-21T13:25:38Z,42.805,6.029,13.3034,4.60034,2470.357,2021-4-21T15:26:47Z
2021-04-21T13:28:41Z,42.805,6.029,13.3027,4.60036,2470.343,2021-4-21T15:29:50Z
2021-04-21T13:31:45Z,42.805,6.029,13.3024,4.60034,2470.38,2021-4-21T15:32:54Z
2021-04-21T13:34:48Z,42.805,6.029,13.3041,4.60021,2470.357,2021-4-21T15:35:57Z
2021-04-21T13:37:51Z,42.805,6.029,13.2990,4.60041,2470.404,2021-4-21T15:39:00Z
2021-04-21T13:40:54Z,42.805,6.029,13.3034,4.60034,2470.404,2021-4-21T15:42:03Z
2021-04-21T13:43:57Z,42.805,6.029,13.2989,4.60057,2470.404,2021-4-21T15:45:06Z
2021-04-21T13:47:00Z,42.805,6.029,13.2983,4.60023,2470.413,2021-4-21T15:48:09Z
2021-04-21T13:50:03Z,42.805,6.029,13.2981,4.60003,2470.357,2021-4-21T15:51:12Z
2021-04-21T13:53:06Z,42.805,6.029,13.2980,4.60009,2470.404,2021-4-21T15:54:16Z
2021-04-21T13:56:10Z,42.805,6.029,13.3000,4.60023,2470.334,2021-4-21T15:57:19Z
2021-04-21T13:59:13Z,42.805,6.029,13.2984,4.60014,2470.39,2021-4-21T16:00:22Z
2021-04-21T14:02:16Z,42.805,6.029,13.2991,4.60016,2470.343,2021-4-21T16:03:25Z
2021-04-21T14:05:19Z,42.805,6.029,13.2983,4.60029,2470.39,2021-4-21T16:06:28Z
2021-04-21T14:08:22Z,42.805,6.029,13.2982,4.60026,2470.334,2021-4-21T16:09:31Z
2021-04-21T14:11:25Z,42.805,6.029,13.2983,4.60013,2470.39,2021-4-21T16:12:34Z
2021-04-21T14:14:28Z,42.805,6.029,13.2982,4.60023,2470.404,2021-4-21T16:15:37Z
2021-04-21T14:17:31Z,42.805,6.029,13.2983,4.60015,2470.366,2021-4-21T16:18:41Z
2021-04-21T14:20:35Z,42.805,6.029,13.2979,4.60009,2470.404,2021-4-21T16:21:44Z
2021-04-21T14:23:38Z,42.805,6.029,13.2983,4.60013,2470.343,2021-4-21T16:24:47Z
2021-04-21T14:26:41Z,42.805,6.029,13.2981,4.60007,2470.38,2021-4-21T16:27:50Z
2021-04-21T14:29:44Z,42.805,6.029,13.2980,4.60009,2470.39,2021-4-21T16:30:53Z
2021-04-21T14:32:47Z,42.805,6.029,13.2977,4.60006,2470.404,2021-4-21T16:33:56Z
2021-04-21T14:35:50Z,42.805,6.029,13.2981,4.60000,2470.366,2021-4-21T16:36:59Z
2021-04-21T14:38:53Z,42.805,6.029,13.2982,4.60009,2470.404,2021-4-21T16:40:02Z
2021-04-21T14:41:56Z,42.805,6.029,13.2982,4.60011,2470.404,2021-4-21T16:43:06Z
2021-04-21T14:45:00Z,42.805,6.029,13.2981,4.60008,2470.343,2021-4-21T16:46:09Z
2021-04-21T14:48:03Z,42.805,6.029,13.2983,4.60000,2470.39,2021-4-21T16:49:12Z
2021-04-21T14:51:06Z,42.805,6.029,13.2983,4.60008,2470.366,2021-4-21T16:52:15Z
2021-04-21T14:54:09Z,42.805,6.029,13.2982,4.60015,2470.366,2021-4-21T16:55:18Z
2021-04-21T14:57:12Z,42.805,6.029,13.2976,4.60011,2470.366,2021-4-21T16:58:21Z
2021-04-21T15:00:15Z,42.805,6.029,13.2983,4.60014,2470.404,2021-4-21T17:01:24Z
2021-04-21T15:03:18Z,42.805,6.029,13.2979,4.60012,2470.404,2021-4-21T17:04:28Z
2021-04-21T15:06:22Z,42.805,6.029,13.2979,4.60019,2470.39,2021-4-21T17:07:31Z
2021-04-21T15:09:25Z,42.805,6.029,13.2982,4.60013,2470.39,2021-4-21T17:10:34Z
2021-04-21T15:12:28Z,42.805,6.029,13.2983,4.60015,2470.39,2021-4-21T17:13:37Z
2021-04-21T15:15:31Z,42.805,6.029,13.2981,4.60016,2470.404,2021-4-21T17:16:40Z